Location: La Sioule Rivi�re
(46.3664°N, 3.3197°E)
Time: 12:52:33
(UTC+00:00)

Meteor 2-15 - Pass Details

Date: 29 October 2020
Orbit: 935 x 956 km, 82.5° (Epoch: 23 November)

Event Time Altitude Azimuth Distance (km) Brightness Sun altitude
Rises 17:44:50 0° 173° (S) 3,620 7.5 -12.4°
Reaches altitude 10° 17:47:22 10° 169° (S) 2,678 6.8 -12.8°
Maximum altitude 17:53:19 56° 93° (E) 1,125 4.5 -13.8°
Drops below altitude 10° 17:59:18 10° 17° (NNE) 2,685 6.6 -14.9°
Sets 18:01:50 0° 13° (NNE) 3,632 7.3 -15.3°
